Location: Bucquoy
(50.1391°N, 2.7097°E)
Time: 08:23:27
(UTC+00:00)

USA 276 - Pass Details

Date: 06 May 2021
Orbit: 383 x 389 km, 50.0° (Epoch: 01 June)

Event Time Altitude Azimuth Distance (km) Brightness Sun altitude
Exits shadow 03:10:44 10° 196° (SSW) 1,396 4.4 -9.5°
Maximum altitude 03:13:05 20° 147° (SSE) 963 4.0 -9.2°
Drops below altitude 10° 03:15:29 10° 97° (E) 1,410 5.6 -9.0°
Sets 03:17:52 0° 80° (E) 2,266 7.2 -8.7°
